DELTA 1 DEB, 3123

Orbit data source: Space-Track

DELTA 1 DEB, 3123 is space debris in SSO originally from a launch on Fri, 10 Nov 1967 UTC launched from the Air Force Western Test Range (AFWTR). Debris objects in space refer to the collection of defunct objects orbiting the Earth. Examples of debris include non-operational satellites, rocket bodies, and fragments generated from explosions, collisions, or faulty payload assembly.

Loading next visibility...
Identifier
3123, 1967-114D
Orbit
SSO
Country
Flag of USUS
Related business
Manufacturer
Unknown
Mission
Spacecraft
Bus & Motor
Unknown
Mass
Unknown
Launch date (UTC)
1967-11-10 (58 years ago)
Launch vehicle
Unknown
Launch site
Air Force Western Test Range (AFWTR)
Object type
Payload
Rocket body
Debris
Shape & HBR
Unknown shape, 0.1 m
Radar Cross Section
Small (<0.1 m²)

Expand to show TLE details & history
Last TLE update: 2 days ago

TLE from 2 days ago
0 DELTA 1 DEB
1 03123U 67114D   25339.62070035 -.00000019  00000-0  19880-3 0  9993
2 03123 102.4502 102.1256 0028326 258.4049 120.8795 12.48098748644619
Epoch: 2025-12-05T14:53Z
TLE epoch observation values (Epoch: 2025-12-05T14:53:48.510Z)
Latitude
19.08528°
Longitude
159.65374°
Altitude
1,486.002 km
Speed
7.117 km/s
True Right ascension
06h 31m 03s
True Declination
18° 59' 21"
Sunlit
Object was in full shadow at epoch
Visualization orbit readout
Latitude
Unknown
Longitude
Unknown
Altitude
Unknown
Speed
Unknown
Apparent Right ascension
Unknown
Apparent Declination
Unknown
Sunlit
N/A
Visualization observer readout
Local Sidereal Time
09:49:28
Azimuth
Unknown
Elevation
Unknown
Doppler factor
Unknown
Orbital elements
Apogee altitude
1,492.28 km
Perigee altitude
1,447.818 km
Semi-major axis
7,848.186 km
Eccentricity
0.00283
Inclination
102.4502°
RAAN
102.1256°
Arg. of periapsis
258.4049°
True anomaly
121.15757°
Mean anomaly
120.8795°
Eccentric anomaly
121.01859°
Mean motion
3.12169 °/min
Orbital period
115.32 mins
BSTAR
0.0001988
Loading maneuver chart data...
Computing Atmospheric mass density...
Loading historical data...
Loading historical data...
Loading historical data...
Loading historical data...
Loading historical data...
Loading historical data...
Loading historical data...
Other satellites on launch #114 in the year 1967 (1967-11-10 UTC)

Documentation

Showing up to 5 results
|